Wind_Speed
51 44 41 43 48 51 54 54 55 56 57 56 51 47 45 44 45 47 50 53 56 58 60 62 63 62 60 58 56 55 54 53 50 43 38 39 40 37 33 29 25 26 28
42 41 44 47 49 51 53 54 55 56 54 50 47 46 46 46 49 51 54 57 60 62 63 64 62 60 56 54 52 49 47 46 44 38 33 34 34 31 27 23 21 22 24
45 48 49 49 50 52 53 53 54 52 48 45 45 46 48 50 53 56 59 61 62 64 64 62 60 56 52 49 46 43 41 40 39 31 27 29 28 25 21 19 18 19 21
50 51 50 49 50 50 50 51 49 46 44 44 45 48 52 55 58 60 62 63 64 64 63 59 55 50 45 42 40 37 36 35 32 26 23 23 23 20 17 17 17 17 17
50 49 47 47 47 47 48 47 44 44 43 44 48 52 56 59 60 61 62 62 61 58 54 50 46 42 39 36 33 32 31 29 25 21 19 19 18 16 15 16 16 16 17
46 45 45 45 46 46 45 44 43 43 45 47 51 55 57 59 60 60 58 55 54 52 49 45 41 38 34 29 27 26 25 23 20 17 15 15 15 13 13 14 15 16 16
44 44 44 44 44 43 42 43 44 45 48 51 53 56 57 58 57 54 52 51 50 48 42 35 32 29 24 21 22 22 21 18 15 14 13 13 12 10 10 12 14 15 15
42 43 44 43 41 41 43 44 46 49 51 53 54 55 55 54 50 47 44 42 40 35 30 28 26 21 18 18 19 19 17 13 12 11 12 11 9 8 8 10 11 12 12
43 43 42 41 41 42 44 46 49 50 52 53 53 53 51 48 43 39 35 33 33 31 29 26 22 18 17 16 16 15 13 11 10 10 11 10 8 6 6 7 8 8 7
41 41 40 40 41 43 46 48 49 51 51 51 51 50 46 41 38 34 32 33 33 31 28 24 20 18 16 14 13 12 12 11 11 11 9 7 6 6 6 6 7 5 4
39 38 38 39 42 44 46 47 49 49 49 49 48 45 40 37 34 32 33 34 33 29 24 19 15 13 12 10 9 11 13 13 12 10 8 7 7 9 9 8 6 3 0
36 36 38 40 42 44 45 46 46 45 45 45 43 40 36 34 31 31 32 31 27 22 17 13 10 9 7 5 9 13 14 12 11 9 8 8 10 10 10 8 5 2 3
32 35 38 41 42 43 43 43 42 42 42 42 39 36 34 30 28 27 27 23 19 16 13 9 6 4 2 8 13 14 13 11 9 9 9 10 11 11 10 8 5 5 8
32 36 38 40 40 40 39 39 39 40 40 39 36 32 28 25 23 22 20 16 14 15 13 8 4 4 8 13 15 14 13 12 11 10 9 11 13 13 11 8 8 10 13
33 36 37 38 37 37 37 38 38 38 37 35 30 26 23 21 19 18 14 11 13 16 14 9 8 10 14 16 17 17 16 15 13 12 12 14 16 15 11 9 10 13 15
34 35 35 35 36 36 37 38 37 36 35 31 26 23 20 17 16 15 12 10 12 16 14 10 11 15 19 21 22 21 18 16 14 14 14 15 15 13 10 10 12 14 14
33 33 34 35 36 37 37 37 36 34 32 29 25 21 16 13 14 15 12 9 10 13 13 11 13 19 22 23 22 20 17 15 14 13 13 13 13 11 10 11 14 15 14
32 33 34 36 37 37 36 34 32 30 29 27 24 20 15 11 12 15 14 9 7 10 12 11 16 21 22 23 21 19 17 16 15 14 13 13 13 11 12 15 17 18 18
32 34 36 38 37 36 33 30 27 27 26 25 22 19 14 10 11 14 14 9 6 7 11 12 17 21 22 22 20 17 16 15 14 12 13 14 13 13 16 19 20 20 20
33 35 37 37 35 32 29 25 23 23 24 23 21 18 13 10 10 12 13 8 5 6 10 13 16 20 21 20 17 15 13 11 9 9 11 12 13 14 18 22 21 20 21
34 35 35 33 31 28 24 21 20 21 23 23 21 18 15 12 12 12 12 9 5 5 9 13 15 17 19 18 16 14 10 7 7 8 9 11 13 16 20 22 21 21 21
34 33 32 31 27 24 21 19 20 21 22 22 20 19 18 17 15 13 12 9 7 6 8 13 15 15 16 15 14 12 9 7 7 8 9 11 13 17 20 21 21 21 21
33 32 31 27 24 22 19 19 20 22 22 21 18 15 16 17 17 15 12 10 8 7 8 13 16 15 14 13 11 10 10 9 8 8 9 12 14 16 18 19 20 20 20
33 32 30 26 23 21 20 20 21 23 23 23 20 15 12 13 16 16 14 12 10 8 8 11 15 16 14 13 12 11 11 10 8 8 10 12 14 15 16 17 17 17 16
34 33 30 26 24 22 21 22 24 25 26 26 24 20 16 15 17 18 17 16 14 12 10 10 11 13 14 13 12 11 10 9 8 8 10 12 13 14 14 15 15 15 14
35 33 31 29 26 25 24 25 26 27 27 27 26 23 20 19 21 21 21 20 19 17 13 10 10 11 12 13 12 11 10 9 9 9 10 11 12 12 12 12 12 13 13
Wind_Direction
285 288 293 299 303 305 306 307 308 309 311 311 310 308 307 306 305 303 302 300 299 298 298 298 297 296 294 293 292 292 292 293 293 289 277 262 259 264 270 267 256 250 251
299 303 307 307 307 307 307 307 309 310 311 310 309 308 308 308 307 305 302 300 299 299 298 298 298 296 293 291 291 290 291 292 292 286 271 258 255 261 267 260 249 245 246
315 314 313 311 309 307 307 308 310 311 310 309 310 310 310 309 308 305 303 302 301 300 299 298 297 295 292 290 288 288 290 291 290 281 263 253 253 259 258 248 242 243 248
314 313 311 308 306 306 307 309 309 308 307 309 311 312 311 310 308 306 305 304 303 302 301 299 298 295 292 288 286 286 289 290 286 274 256 248 250 252 246 240 241 246 250
312 310 308 307 307 308 308 308 306 306 309 312 314 314 312 310 308 307 307 306 305 304 304 304 302 297 292 285 282 283 287 287 279 265 250 241 242 242 238 238 240 246 252
311 309 308 308 309 309 308 307 307 310 314 316 315 313 311 309 308 310 310 308 306 306 307 305 301 297 290 282 279 280 285 281 270 254 236 228 230 235 236 237 239 247 256
309 308 310 311 311 310 309 309 312 315 316 316 315 312 310 310 312 312 310 308 308 309 309 307 304 300 291 279 278 281 284 272 254 232 217 212 220 236 240 239 240 248 258
309 312 313 313 311 310 312 314 315 317 317 316 313 311 311 313 314 313 312 313 316 318 317 313 307 300 290 282 280 282 276 256 231 211 204 208 219 230 230 230 235 244 252
312 314 314 313 312 314 315 316 318 318 316 314 313 313 315 317 317 316 316 319 320 318 315 312 307 300 290 285 280 272 255 227 200 187 191 200 210 216 218 221 218 221 242
312 312 312 313 315 316 317 318 318 317 315 315 316 319 320 321 320 318 317 319 319 316 312 308 303 296 290 284 272 247 222 195 172 169 176 188 198 191 187 180 179 198 246
311 311 312 314 316 318 320 320 319 319 320 321 322 324 323 323 321 320 320 321 320 316 311 305 301 296 292 279 241 206 186 168 161 164 165 165 166 164 161 161 167 179 63
311 312 313 317 321 322 322 322 323 325 326 327 327 327 326 326 325 325 325 325 324 322 317 309 302 300 293 234 186 172 161 158 161 166 168 168 166 162 159 156 150 122 81
311 314 318 323 324 325 326 327 329 331 332 331 330 329 329 330 330 330 331 334 338 341 339 331 319 310 198 163 158 152 149 154 161 165 169 170 168 162 152 140 125 111 104
316 321 324 326 327 328 331 334 335 336 335 334 332 333 335 338 338 338 341 351 3 2 360 3 27 105 135 143 142 141 143 146 147 148 153 158 158 152 141 130 125 122 117
324 326 328 329 330 332 335 339 339 337 337 337 337 340 344 346 347 349 355 4 7 11 18 38 83 112 125 130 132 134 135 134 128 122 124 134 141 141 133 129 132 128 122
329 329 330 331 333 335 337 339 340 340 341 342 343 345 348 352 358 2 2 3 8 17 30 56 96 116 122 126 128 129 129 127 123 119 119 127 136 136 131 133 138 133 125
331 331 332 334 336 337 337 338 340 343 346 349 350 353 357 4 10 11 6 360 5 21 37 68 110 123 125 128 129 128 125 122 119 119 122 128 134 136 135 139 139 132 124
334 335 335 336 336 335 336 337 341 346 351 354 355 358 4 11 17 15 9 4 9 26 44 82 122 132 132 134 132 128 121 112 109 108 113 124 131 134 138 141 138 130 121
339 339 337 336 335 335 337 341 346 352 358 360 0 3 7 13 16 14 10 13 21 38 56 91 128 142 142 140 136 129 122 115 109 106 111 119 125 128 136 141 139 134 127
343 340 337 337 338 341 345 350 354 0 6 8 8 9 14 20 18 15 14 25 42 59 72 96 127 147 153 153 149 143 135 125 113 106 113 118 121 127 137 143 144 140 135
343 341 341 343 346 350 355 0 4 9 14 17 19 23 28 32 30 27 28 43 64 74 84 99 122 145 158 163 163 160 153 139 120 115 116 119 122 131 140 146 149 148 143
345 346 348 351 355 1 6 10 13 16 19 22 27 35 41 42 41 40 41 51 74 88 99 104 115 134 152 164 170 173 173 158 135 121 116 117 122 134 144 150 153 154 153
353 355 357 1 7 12 18 19 20 21 22 24 28 37 46 47 44 44 48 57 77 101 111 110 112 121 136 147 155 160 158 150 137 126 121 119 121 130 143 150 152 154 156
4 6 10 16 21 24 27 27 26 27 27 28 29 35 46 48 45 48 55 66 79 95 107 108 110 113 121 131 138 145 149 149 140 132 133 130 126 125 135 146 152 156 158
17 19 23 28 31 34 34 32 31 32 33 34 37 43 57 61 56 57 62 70 81 91 99 101 105 111 116 121 129 138 146 148 142 137 141 142 136 129 129 136 147 156 164
27 30 33 36 38 39 37 35 35 36 38 39 43 51 63 67 64 65 67 73 83 90 96 101 101 108 118 121 123 129 135 139 140 140 145 152 152 145 138 136 141 151 164
Height
5741 5738 5734 5731 5725 5718 5711 5704 5697 5689 5681 5673 5665 5658 5650 5644 5638 5633 5627 5621 5615 5608 5601 5594 5588 5580 5574 5568 5563 5559 5555 5551 5549 5547 5544 5542 5541 5542 5543 5544 5546 5548 5551
5734 5730 5726 5721 5715 5708 5700 5693 5685 5677 5669 5661 5654 5647 5640 5633 5627 5620 5614 5607 5599 5592 5584 5576 5569 5563 5557 5552 5548 5544 5541 5537 5534 5533 5531 5530 5531 5532 5534 5535 5537 5539 5542
5726 5721 5716 5709 5703 5695 5688 5680 5672 5665 5657 5649 5643 5636 5629 5622 5614 5606 5599 5591 5583 5574 5566 5559 5552 5547 5543 5538 5534 5532 5529 5525 5522 5520 5520 5520 5522 5524 5526 5527 5530 5532 5534
5716 5709 5703 5696 5689 5682 5675 5668 5660 5653 5645 5637 5630 5623 5616 5608 5600 5591 5583 5574 5565 5556 5547 5541 5536 5531 5528 5524 5522 5520 5518 5515 5512 5511 5512 5513 5515 5517 5519 5521 5524 5526 5528
5704 5697 5690 5684 5677 5671 5664 5657 5650 5642 5634 5625 5617 5610 5603 5594 5585 5576 5567 5558 5548 5539 5532 5526 5521 5517 5514 5512 5511 5510 5509 5506 5505 5504 5506 5507 5510 5512 5514 5517 5519 5521 5523
5692 5686 5680 5673 5666 5660 5654 5647 5640 5631 5622 5613 5605 5598 5590 5581 5571 5561 5552 5542 5533 5527 5521 5515 5509 5505 5502 5501 5502 5501 5500 5499 5499 5499 5501 5503 5506 5508 5510 5513 5515 5517 5518
5682 5676 5670 5663 5656 5650 5644 5637 5629 5620 5611 5602 5594 5586 5577 5567 5557 5548 5538 5529 5522 5515 5509 5504 5500 5495 5494 5494 5495 5495 5494 5493 5494 5495 5498 5501 5503 5505 5507 5509 5511 5513 5514
5672 5666 5659 5653 5647 5641 5634 5626 5618 5609 5599 5591 5583 5574 5565 5555 5545 5536 5527 5519 5512 5506 5501 5497 5493 5490 5489 5489 5489 5489 5489 5489 5490 5493 5496 5499 5501 5503 5504 5506 5508 5509 5510
5663 5657 5651 5645 5639 5632 5624 5616 5607 5598 5589 5580 5572 5563 5553 5544 5535 5526 5519 5512 5506 5500 5496 5491 5488 5486 5485 5485 5485 5485 5485 5487 5489 5491 5494 5497 5500 5501 5503 5504 5506 5507 5508
5655 5649 5643 5636 5630 5623 5615 5606 5596 5588 5579 5570 5560 5551 5542 5533 5525 5518 5512 5506 5500 5494 5489 5486 5483 5481 5480 5480 5480 5481 5483 5485 5488 5491 5494 5496 5498 5500 5502 5503 5505 5506 5507
5648 5641 5635 5629 5622 5613 5605 5596 5587 5578 5568 5559 5550 5541 5533 5526 5518 5512 5506 5499 5493 5487 5483 5480 5478 5477 5476 5476 5476 5478 5481 5484 5488 5491 5494 5496 5498 5500 5502 5504 5505 5507 5507
5641 5634 5628 5621 5613 5604 5595 5586 5578 5569 5559 5549 5540 5532 5525 5519 5513 5506 5500 5493 5487 5482 5478 5475 5474 5473 5473 5473 5475 5478 5482 5485 5488 5491 5494 5496 5499 5501 5503 5505 5507 5508 5508
5634 5628 5621 5613 5604 5596 5588 5579 5570 5561 5552 5543 5534 5527 5520 5513 5508 5502 5496 5490 5484 5479 5475 5473 5472 5471 5472 5473 5476 5480 5484 5487 5489 5492 5494 5497 5500 5503 5506 5507 5509 5510 5510
5629 5622 5614 5606 5597 5590 5581 5573 5564 5555 5546 5538 5529 5522 5515 5510 5505 5499 5494 5489 5485 5480 5476 5473 5472 5472 5473 5476 5479 5483 5485 5488 5491 5493 5496 5499 5502 5506 5508 5510 5511 5512 5512
5623 5615 5607 5599 5592 5584 5576 5567 5559 5550 5542 5534 5526 5519 5513 5508 5503 5498 5494 5490 5486 5482 5478 5476 5475 5476 5477 5480 5483 5486 5489 5491 5494 5497 5499 5501 5505 5508 5511 5513 5514 5515 5516
5617 5610 5602 5595 5587 5578 5570 5562 5554 5546 5538 5529 5522 5516 5511 5506 5502 5498 5495 5491 5488 5484 5481 5479 5479 5480 5482 5484 5487 5490 5493 5496 5499 5501 5503 5506 5509 5512 5514 5515 5517 5519 5521
5613 5606 5598 5590 5581 5573 5565 5557 5550 5542 5534 5527 5520 5514 5510 5506 5502 5499 5496 5493 5491 5488 5485 5483 5484 5485 5488 5490 5493 5496 5498 5501 5503 5505 5507 5510 5512 5515 5517 5518 5520 5523 5525
5609 5601 5593 5585 5576 5568 5561 5553 5546 5539 5532 5525 5519 5514 5509 5506 5503 5501 5498 5495 5493 5492 5489 5487 5488 5490 5493 5496 5498 5501 5503 5505 5507 5510 5512 5514 5516 5518 5520 5522 5524 5528 5530
5605 5597 5588 5580 5572 5564 5556 5549 5543 5537 5531 5525 5519 5514 5510 5507 5505 5503 5500 5497 5495 5495 5493 5492 5492 5495 5498 5501 5503 5506 5508 5510 5512 5514 5516 5517 5519 5521 5523 5526 5529 5532 5536
5601 5593 5585 5576 5568 5560 5553 5547 5542 5537 5531 5525 5519 5515 5511 5508 5506 5504 5502 5499 5498 5497 5497 5496 5496 5498 5501 5504 5507 5510 5512 5514 5516 5517 5519 5521 5522 5524 5526 5530 5533 5537 5541
5599 5590 5581 5572 5564 5557 5551 5546 5542 5537 5532 5526 5521 5516 5513 5510 5508 5506 5503 5501 5500 5500 5500 5500 5500 5502 5505 5508 5510 5513 5515 5518 5519 5521 5522 5524 5525 5527 5530 5534 5538 5542 5545
5596 5587 5578 5569 5561 5556 5551 5547 5542 5538 5533 5528 5524 5519 5516 5513 5510 5508 5506 5504 5504 5504 5504 5504 5505 5506 5508 5511 5514 5516 5519 5521 5522 5524 5525 5527 5529 5531 5534 5538 5542 5546 5550
5594 5584 5575 5567 5561 5556 5552 5548 5544 5540 5535 5531 5526 5522 5520 5517 5514 5511 5509 5508 5507 5507 5508 5509 5509 5511 5512 5514 5517 5519 5522 5524 5526 5527 5529 5531 5533 5536 5539 5542 5546 5550 5553
5592 5583 5575 5568 5563 5559 5555 5551 5547 5543 5538 5533 5528 5524 5522 5520 5517 5515 5512 5511 5510 5511 5512 5513 5514 5515 5517 5518 5520 5523 5525 5527 5529 5531 5533 5536 5538 5540 5543 5546 5550 5553 5557
5592 5584 5577 5572 5567 5563 5559 5555 5551 5546 5541 5536 5531 5527 5524 5523 5521 5519 5517 5515 5515 5515 5516 5518 5519 5520 5521 5523 5524 5526 5529 5531 5533 5535 5537 5540 5542 5544 5547 5549 5552 5556 5559
5596 5589 5583 5577 5572 5568 5563 5559 5555 5550 5545 5541 5536 5532 5530 5528 5526 5524 5522 5521 5520 5521 5521 5522 5523 5524 5526 5527 5529 5530 5532 5534 5536 5538 5540 5543 5545 5548 5550 5553 5555 5558 5561